Regional Weather Roundup
Issued by NWS

Home | Current Version | Previous Version | Graphics & Text | Print | Product List | Glossary On
Versions: 1 2 3 4 5 6 7 8 9 10 11 12 13 14 15 16 17 18 19 20 21 22 23 24 25 26 27 28 29 30 31 32 33 34 35 36 37 38 39 40 41 42 43 44 45 46 47 48 49 50
000
ASUS43 KIND 130009
RWRIN

WEATHER ROUNDUP FOR INDIANA
NATIONAL WEATHER SERVICE INDIANAPOLIS IN
700 PM EST FRI FEB 12 2016

NOTE: "FAIR" INDICATES FEW OR NO CLOUDS BELOW 12,000 FEET WITH NO
SIGNIFICANT WEATHER AND/OR OBSTRUCTIONS TO VISIBILITY.

* - STATION DOES NOT REPORT WEATHER SUCH AS PRECIPITATION OR FOG.

+ - STATION NOT QUALITY CONTROLLED BY THE NATIONAL WEATHER SERVICE.
    USE DATA WITH CAUTION...ESPECIALLY DEWPOINT AND RELATIVE
    HUMIDITY OBSERVATIONS.

INZ001>003-010>013-019-020-130100-
NORTHWEST INDIANA

CITY           SKY/WX    TMP DP  RH WIND       PRES   REMARKS
GARY /AIRPORT/ PTCLDY    21  -4  33 NW28      30.26R WCI   3
KNOX *+        MOCLDY    19   5  53 NW16G25   30.22R WCI   5
LA PORTE +     MOCLDY    20   8  57 NW18G28   30.20R WCI   5
6HR MIN TEMP:  20; 6HR MAX TEMP:  24;

MICHIGAN CITY+ CLOUDY    19   3  49 NW13G31   30.23R WCI   7
MONTICELLO +   PTCLDY    19   4  52 NW16      30.22R WCI   5
6HR MIN TEMP:  19; 6HR MAX TEMP:  26;

RENSSELAER +   PTCLDY    21   1  42 W15G24    30.24R WCI   8
VALPARAISO     PTCLDY    19   1  45 NW16G26   30.22R WCI   4
6HR MIN TEMP:  19; 6HR MAX TEMP:  24; 6HR PCP: TRACE;


$$

LMZ046-743>745-130100-
SOUTHERN LAKE MICHIGAN

STATION/POSITION TIME  TEMP    WIND        PRES    WAVE
                       AIR SEA DIR/SP/G            HT
                 (UTC) (F)     (DEG/KT/KT) (MB)    (FT)
BURNS HARBOR     0004   20     320/ 23/ 29 1023.7R
MICHIGAN CITY    2300   20     280/ 23/ 31   N/A

$$

INZ004-005-014>016-021>024-130100-
NORTH CENTRAL INDIANA

CITY           SKY/WX    TMP DP  RH WIND       PRES   REMARKS
ELKHART        LGT SNOW  16  10  79 NW14G26   30.18R WCI   1
GOSHEN         LGT SNOW  16  10  77 NW15      30.16R WCI   1
6HR MIN TEMP:  16; 6HR MAX TEMP:  21; 6HR PCP: TRACE;

LOGANSPORT +   CLOUDY    21   5  49 NW10      30.21R WCI  10
PERU/GRISSOM   MOCLDY    20   8  59 NW14G23   30.17R WCI   7
6HR MIN TEMP:  20; 6HR MAX TEMP:  24; 6HR PCP: TRACE;

ROCHESTER +    PTCLDY    21   3  45 NW13G20   30.19R WCI   9
SOUTH BEND     LGT SNOW  16   7  67 NW22G33   30.19R WCI  -2
6HR MIN TEMP:  16; 6HR MAX TEMP:  20; 6HR PCP: TRACE;

WARSAW +       LGT SNOW  18  14  86 NW14      30.16R WCI   4

$$

INZ006>009-017-018-025>027-130100-
NORTHEAST INDIANA

CITY           SKY/WX    TMP DP  RH WIND       PRES   REMARKS
ANGOLA *+      PTCLDY    16   9  73 NW13      30.08R WCI   2
AUBURN +       FLURRIES  18  12  79 W13       30.13R WCI   4
FORT WAYNE     FLURRIES  18  10  71 W16G22    30.14R WCI   3
6HR MIN TEMP:  18; 6HR MAX TEMP:  24; 6HR PCP:  0.01;

HUNTINGTON +   PTCLDY    18   5  56 NW8G20    30.16R WCI   8
6HR MIN TEMP:  18; 6HR MAX TEMP:  24;


$$

INZ028-029-035-036-043>045-051>053-130100-
WEST CENTRAL INDIANA

CITY           SKY/WX    TMP DP  RH WIND       PRES   REMARKS
CRAWFORDSVL +  MOCLDY    20   6  54 W16G22    30.23R WCI   6
6HR MIN TEMP:  20; 6HR MAX TEMP:  24;

GREENCASTLE +  PTCLDY    23   5  46 NW7       30.24R WCI  15
LAFAYETTE      CLEAR     20   6  55 NW18G24   30.24R WCI   5
6HR MIN TEMP:  20; 6HR MAX TEMP:  26; 6HR PCP: TRACE;

TERRE HAUTE    PTCLDY    24  12  60 NW7       30.28R WCI  16
6HR MIN TEMP:  24; 6HR MAX TEMP:  27; 6HR PCP: TRACE;


$$

INZ030>032-037>040-046>048-054>057-064-065-130100-
CENTRAL INDIANA

CITY           SKY/WX    TMP DP  RH WIND       PRES   REMARKS
FRANKFORT +    PTCLDY    22   1  39 NW22G31   30.22R WCI   7
6HR MIN TEMP:  22; 6HR MAX TEMP:  26;

INDIANAPOLIS   MOCLDY    23   9  55 W17       30.21R WCI   9
6HR MIN TEMP:  23; 6HR MAX TEMP:  27; 6HR PCP: TRACE;

-EAGLE CREEK   MOCLDY    22   9  57 NW16      30.20R WCI   8
6HR MIN TEMP:  22; 6HR MAX TEMP:  26; 6HR PCP: TRACE;

KOKOMO *+      CLOUDY    19  10  68 N18G26    30.18R WCI   4
6HR MIN TEMP:  19; 6HR MAX TEMP:  25;

MARION +       MOCLDY    19   5  54 NW14      30.18R WCI   6
MT COMFORT *+  MOCLDY    21   9  58 NW17G28   30.19R WCI   7
SHELBYVILLE    CLOUDY    24  11  57 NW17G32   30.19R WCI  11
6HR MIN TEMP:  24; 6HR MAX TEMP:  28; 6HR PCP: TRACE;

ZIONSVILLE +   CLOUDY    21   9  58 NW12G20   30.20R WCI   9
6HR MIN TEMP:  21; 6HR MAX TEMP:  25;


$$

INZ033-034-041-042-049-050-058-059-130100-
EAST CENTRAL INDIANA

CITY           SKY/WX    TMP DP  RH WIND       PRES   REMARKS
MUNCIE         LGT SNOW  21  12  68 NW21      30.16R WCI   5
6HR MIN TEMP:  22; 6HR MAX TEMP:  25; 6HR PCP: TRACE;


$$

INZ060-061-067>069-081>083-085>088-130100-
SOUTHWEST INDIANA

CITY           SKY/WX    TMP DP  RH WIND       PRES   REMARKS
EVANSVILLE     PTCLDY    29  15  56 NW10G26   30.34R WCI  20
6HR MIN TEMP:  29; 6HR MAX TEMP:  34;

HUNTINGBURG *+ CLOUDY    28  18  64 NW14G26   30.30R WCI  17
6HR MIN TEMP:  28; 6HR MAX TEMP:  32;

WASHINGTON +   CLOUDY    28  15  60 NW18G24   30.29R WCI  15
6HR MIN TEMP:  28; 6HR MAX TEMP:  30;


$$

INZ062-063-066-070>080-084-089>092-130100-
SOUTH CENTRAL AND SOUTHEAST INDIANA

CITY           SKY/WX    TMP DP  RH WIND       PRES   REMARKS
BLOOMINGTON    PTCLDY    24  11  57 NW10G20   30.24R WCI  14
6HR MIN TEMP:  24; 6HR MAX TEMP:  27; 6HR PCP: TRACE;

MADISON *+     CLOUDY    28  16  59 W10G22    30.22R WCI  19
SEYMOUR +      MOCLDY    28  16  59 W14G21    30.23R WCI  17

$$




USA.gov is the U.S. government's official web portal to all federal, state and local government web resources and services.